Location: Cutler
(25.6150°N, 80.3110°W)
Time: 22:45:28
(UTC-05:00)

Tiangong 2 - Pass Details

Date: 12 November 2017
Orbit: 386 x 392 km, 42.8° (Epoch: 21 November)

Event Time Altitude Azimuth Distance (km) Brightness Sun altitude
Rises 18:16:42 0° 322° (NW) 2,268 5.3 -10.1°
Reaches altitude 10° 18:19:13 10° 342° (NNW) 1,411 4.0 -10.6°
Maximum altitude 18:21:31 18° 29° (NNE) 1,021 2.8 -11.1°
Enters shadow 18:22:26 16° 51° (NE) 1,091 2.8 -11.3°
